HUANJING 1A (HJ-1A)

Last updated on Thu Oct 30 2025 00:02:31 GMT+0000 (Coordinated Universal Time)

1 33320U 08041A 25302.51043142 .00001919 00000+0 24051-3 0 9990 2 33320 97.6521 292.6679 0019343 171.1090 189.0471 14.83192042924204
UTC large
Height (km)
Speed (km/s)
/
Latitude / Longitude
Inclination (degrees)
Orbital Period (minutes)
Azimuth
Elevation
Range (km)
Doppler Factor

Next 0 passes for location: London (51.5072 / 0.1276)

Sorry there are no passes over London.